Location: Madrid
(40.4000°N, 3.6830°W)
Time: 08:47:06
(UTC+02:00)

ISS - Pass Details

Date: 25 July 2017
Orbit: 400 x 408 km, 51.6° (Epoch: 21 July)

Event Time Altitude Azimuth Distance (km) Brightness Sun altitude
Rises 04:54:01 0° 308° (NW) 2,315 0.0 -20.3°
Reaches altitude 10° 04:56:06 10° 311° (NW) 1,454 -1.0 -20.0°
Maximum altitude 04:59:21 69° 35° (NE) 432 -3.6 -19.6°
Drops below altitude 10° 05:02:35 10° 120° (ESE) 1,450 -0.9 -19.2°
Sets 05:04:40 0° 123° (ESE) 2,307 0.1 -19.0°
